Dojo

operational
NORAD ID: 65302 Int'l Des: 2025-185 Owner: ESPACE Country: RW
LEOCIRCULARRETROGRADESSO

关于 Dojo

正在加载描述...

实时位置

正在加载3D地球...

即将过境

高度历史

Altitude vs Time

uPlot chart will show altitude changes over time

两行轨道根数

1 65302U 25185F 26061.46856415 .00005267 00000-0 75118-3 0 9996
2 65302 97.9651 146.0121 0012758 80.9401 279.3252 14.77117975 28071
Epoch: Mar 2, 2026 • Age: 27 hours

当前状态

高度 655.4 km
速度 7.53 km/s
星下点 -29.57°S, 118.89°E
发射日期 Aug 23, 2025
运行时间 0.5 years
类型 other

技术详情

分类 Payload
质量 30.00 kg
干质量 30.00 kg
总质量 30.00 kg
长度 0.60 m
直径 0.40 m
跨度 2.00 m
形状 Box+ pan
制造商 ESPACE
平台类型 Calistus
阶段状态 In Orbit
所有者/国家 ESPACE/RW

大型星座

Loading constellations...